2023/08/01 00:00:00, 0.1,23.8
2023/08/01 00:10:00, 0.1,23.6
2023/08/01 00:20:00, 0.1,23.5
2023/08/01 00:30:00, 0.1,23.5
2023/08/01 00:40:00, 0.1,23.4
2023/08/01 00:50:00, 0.1,23.2
2023/08/01 01:00:00, 0.1,23.0
2023/08/01 01:10:00, 0.1,22.7
2023/08/01 01:20:00, 0.0,22.9
2023/08/01 01:30:00, 1.7,22.5
2023/08/01 01:40:00,19.5,22.8
2023/08/01 01:50:00,21.4,23.0
2023/08/01 02:00:00,21.3,22.6
2023/08/01 02:10:00,20.9,22.6
2023/08/01 02:20:00,20.5,22.7
2023/08/01 02:30:00,20.4,22.5
2023/08/01 02:40:00,20.0,22.1
2023/08/01 02:50:00,19.7,21.9
2023/08/01 03:00:00,19.8,22.0
2023/08/01 03:10:00,20.0,21.9
2023/08/01 03:20:00,20.1,22.0
2023/08/01 03:30:00,17.1,21.9
2023/08/01 03:40:00, 6.1,21.8
2023/08/01 03:50:00, 0.2,21.8
2023/08/01 04:00:00, 0.1,21.6
2023/08/01 04:10:00, 0.7,21.6
2023/08/01 04:20:00,15.2,21.9
2023/08/01 04:30:00,20.5,21.5
2023/08/01 04:40:00,21.2,21.8
2023/08/01 04:50:00,20.9,21.7
2023/08/01 05:00:00,20.5,21.6
2023/08/01 05:10:00,20.2,21.7
2023/08/01 05:20:00,20.2,21.6
2023/08/01 05:30:00,20.2,21.3
2023/08/01 05:40:00,20.1,21.6
2023/08/01 05:50:00,19.8,21.3
2023/08/01 06:00:00,19.5,21.5
2023/08/01 06:10:00,19.2,21.5
2023/08/01 06:20:00,19.1,21.5
2023/08/01 06:30:00,18.8,21.4
2023/08/01 06:40:00,18.3,21.6
2023/08/01 06:50:00,17.9,22.4
2023/08/01 07:00:00,17.6,22.9
2023/08/01 07:10:00,17.0,23.3
2023/08/01 07:20:00,16.6,23.8
2023/08/01 07:30:00,16.7,24.2
2023/08/01 07:40:00,16.8,24.3
2023/08/01 07:50:00,16.7,25.1
2023/08/01 08:00:00,16.6,25.5
2023/08/01 08:10:00,16.4,26.1
2023/08/01 08:20:00,16.5,27.0
2023/08/01 08:30:00,16.2,27.5
2023/08/01 08:40:00,16.7,28.3
2023/08/01 08:50:00,17.1,28.6
2023/08/01 09:00:00,18.5,29.2
2023/08/01 09:10:00,18.9,30.6
2023/08/01 09:20:00,---,31.1
2023/08/01 09:30:00,---,31.5
2023/08/01 09:40:00, 0.4,31.7
2023/08/01 09:50:00, 0.2,32.1
2023/08/01 10:00:00, 0.6,32.6
2023/08/01 10:10:00, 0.3,32.5
2023/08/01 10:20:00, 0.1,32.2
2023/08/01 10:30:00, 0.2,33.1
2023/08/01 10:40:00,---,33.3
2023/08/01 10:50:00, 0.1,33.4
2023/08/01 11:00:00, 0.1,32.8
2023/08/01 11:10:00, 0.1,33.2
2023/08/01 11:20:00, 0.1,33.4
2023/08/01 11:30:00, 0.1,33.8
2023/08/01 11:40:00, 0.1,34.4
2023/08/01 11:50:00, 0.1,34.8
2023/08/01 12:00:00, 0.2,34.6
2023/08/01 12:10:00, 0.2,35.3
2023/08/01 12:20:00,---,35.6
2023/08/01 12:30:00,19.4,36.2
2023/08/01 12:40:00,18.7,35.7
2023/08/01 12:50:00,18.1,35.9
2023/08/01 13:00:00,17.8,36.1
2023/08/01 13:10:00,17.9,35.6
2023/08/01 13:20:00,18.5,36.6
2023/08/01 13:30:00,19.2,35.9
2023/08/01 13:40:00,18.5,35.7
2023/08/01 13:50:00,18.5,36.4
2023/08/01 14:00:00,18.5,36.4
2023/08/01 14:10:00,18.6,36.7
2023/08/01 14:20:00,18.6,35.8
2023/08/01 14:30:00,18.2,34.9
2023/08/01 14:40:00,17.9,36.4
2023/08/01 14:50:00,18.0,36.8
2023/08/01 15:00:00,18.1,36.0
2023/08/01 15:10:00,18.1,37.1
2023/08/01 15:20:00,18.0,36.9
2023/08/01 15:30:00,18.7,35.5
2023/08/01 15:40:00,18.5,35.2
2023/08/01 15:50:00,18.2,35.6
2023/08/01 16:00:00,17.8,36.0
2023/08/01 16:10:00,17.7,36.1
2023/08/01 16:20:00,17.6,36.3
2023/08/01 16:30:00,17.8,35.6
2023/08/01 16:40:00,17.6,35.9
2023/08/01 16:50:00,17.8,35.1
2023/08/01 17:00:00,17.9,34.8
2023/08/01 17:10:00,17.8,35.2
2023/08/01 17:20:00,17.8,33.6
2023/08/01 17:30:00,17.6,34.0
2023/08/01 17:40:00,17.0,32.3
2023/08/01 17:50:00,16.1,31.5
2023/08/01 18:00:00,16.0,30.9
2023/08/01 18:10:00,16.8,30.7
2023/08/01 18:20:00,16.7,30.4
2023/08/01 18:30:00,17.1,30.0
2023/08/01 18:40:00,17.9,29.7
2023/08/01 18:50:00,18.1,29.0
2023/08/01 19:00:00,18.3,28.9
2023/08/01 19:10:00,18.3,28.4
2023/08/01 19:20:00,17.9,28.1
2023/08/01 19:30:00,17.1,27.9
2023/08/01 19:40:00,16.0,27.6
2023/08/01 19:50:00, 6.5,27.2
2023/08/01 20:00:00, 0.1,27.1
2023/08/01 20:10:00, 0.0,26.7
2023/08/01 20:20:00, 0.1,26.5
2023/08/01 20:30:00, 0.0,26.2
2023/08/01 20:40:00, 0.0,26.4
2023/08/01 20:50:00, 0.1,26.3
2023/08/01 21:00:00, 0.1,25.9
2023/08/01 21:10:00, 0.1,26.1
2023/08/01 21:20:00, 0.1,25.6
2023/08/01 21:30:00, 0.1,25.4
2023/08/01 21:40:00, 0.1,25.1
2023/08/01 21:50:00, 0.2,25.0
2023/08/01 22:00:00, 0.1,25.1
2023/08/01 22:10:00, 0.1,24.6
2023/08/01 22:20:00, 0.1,24.6
2023/08/01 22:30:00, 5.1,24.5
2023/08/01 22:40:00,10.2,24.2
2023/08/01 22:50:00, 9.5,24.1
2023/08/01 23:00:00, 0.2,24.2
2023/08/01 23:10:00, 0.1,23.9
2023/08/01 23:20:00, 0.1,23.7
2023/08/01 23:30:00, 0.1,23.7
2023/08/01 23:40:00, 0.1,24.0
2023/08/01 23:50:00, 0.1,23.6
